AMQ586 EPKT-HEGN

Flight info

Callsign AMQ586
Flight time 3h 50m
Altitude 37000
Route BABKO DCT ABULI DCT TUVNU DCT NOPTI DCT NULGO DCT NIKTI UN127 IMR UN128 RDS UL995 VANZA DCT RASDA A16 CVO L315 SOKOT SOKOT1A
Aircraft A320/M-SDE3FGHIRWY/LB1

Departure

Time 2026-04-28 13:31
Airport Katowice Wojciech Korfanty International Airport (EPKT)

Arrival

Time 2026-04-28 17:21
Airport Hurghada International Airport (HEGN)
Time Latitude Longitude Altitude Speed Heading
2026-04-28 13:05 50.47150 19.07077 981 ft 0 kts 180°
2026-04-28 13:20 50.47161 19.07077 981 ft 2 kts 178°
2026-04-28 13:21 50.47176 19.07076 981 ft 2 kts 180°
2026-04-28 13:21 50.47190 19.07076 981 ft 2 kts 180°
2026-04-28 13:21 50.47205 19.07077 980 ft 2 kts 181°
2026-04-28 13:21 50.47220 19.07077 980 ft 2 kts 180°
2026-04-28 13:22 50.47231 19.07077 980 ft 0 kts 181°
2026-04-28 13:22 50.47236 19.07078 980 ft 0 kts 140°
2026-04-28 13:22 50.47239 19.07072 980 ft 0 kts 93°
2026-04-28 13:22 50.47238 19.07061 979 ft 1 kts 89°
2026-04-28 13:25 50.47238 19.07076 980 ft 3 kts 90°
2026-04-28 13:25 50.47238 19.07204 981 ft 14 kts 90°
2026-04-28 13:25 50.47238 19.07361 981 ft 14 kts 90°
2026-04-28 13:26 50.47237 19.07530 983 ft 16 kts 90°
2026-04-28 13:26 50.47237 19.07734 983 ft 20 kts 89°
2026-04-28 13:26 50.47238 19.07972 983 ft 23 kts 89°
2026-04-28 13:26 50.47234 19.08227 984 ft 22 kts 91°
2026-04-28 13:27 50.47234 19.08465 985 ft 21 kts 89°
2026-04-28 13:27 50.47234 19.08692 987 ft 19 kts 90°
2026-04-28 13:27 50.47235 19.08896 989 ft 18 kts 89°
2026-04-28 13:27 50.47237 19.09106 993 ft 20 kts 91°
2026-04-28 13:28 50.47238 19.09342 995 ft 22 kts 88°
2026-04-28 13:28 50.47235 19.09592 1002 ft 21 kts 97°
2026-04-28 13:28 50.47232 19.09807 1006 ft 18 kts 89°
2026-04-28 13:28 50.47232 19.09986 1013 ft 13 kts 85°
2026-04-28 13:29 50.47284 19.10116 1013 ft 16 kts 52°
2026-04-28 13:29 50.47364 19.10275 1011 ft 21 kts 51°
2026-04-28 13:29 50.47467 19.10458 1010 ft 16 kts 23°
2026-04-28 13:29 50.47584 19.10441 1007 ft 19 kts 336°
2026-04-28 13:30 50.47600 19.10262 1006 ft 18 kts 266°
2026-04-28 13:30 50.47597 19.09947 999 ft 54 kts 270°
2026-04-28 13:30 50.47599 19.08957 985 ft 122 kts 270°
2026-04-28 13:30 50.47607 19.07338 1033 ft 168 kts 271°
2026-04-28 13:31 50.47571 19.03519 2140 ft 180 kts 271°
2026-04-28 13:31 50.47435 19.01618 2854 ft 180 kts 249°
2026-04-28 13:31 50.46563 19.00180 3212 ft 200 kts 202°
2026-04-28 13:32 50.45105 19.00088 3560 ft 223 kts 163°
2026-04-28 13:32 50.43632 19.01017 4020 ft 239 kts 154°
2026-04-28 13:32 50.42088 19.02167 4477 ft 257 kts 155°
2026-04-28 13:32 50.40391 19.03331 4961 ft 274 kts 157°
2026-04-28 13:33 50.38625 19.04455 5726 ft 278 kts 160°
2026-04-28 13:33 50.36834 19.05518 6573 ft 280 kts 160°
2026-04-28 13:33 50.35023 19.06559 7326 ft 285 kts 161°
2026-04-28 13:33 50.33163 19.07612 8129 ft 288 kts 162°
2026-04-28 13:34 50.31267 19.08678 9013 ft 289 kts 162°
2026-04-28 13:34 50.29378 19.09727 9819 ft 291 kts 163°
2026-04-28 13:34 50.27472 19.10782 10636 ft 293 kts 163°
2026-04-28 13:34 50.25544 19.11845 11163 ft 305 kts 163°
2026-04-28 13:35 50.23474 19.12980 11511 ft 324 kts 163°
2026-04-28 13:35 50.21302 19.14172 11914 ft 338 kts 163°
2026-04-28 13:35 50.19064 19.15406 12624 ft 342 kts 163°
2026-04-28 13:35 50.16847 19.16629 13369 ft 345 kts 163°
2026-04-28 13:36 50.14558 19.17890 14061 ft 349 kts 163°
2026-04-28 13:36 50.12274 19.19146 14726 ft 352 kts 163°
2026-04-28 13:36 50.09956 19.20419 15381 ft 356 kts 163°
2026-04-28 13:36 50.07627 19.21697 16012 ft 360 kts 163°
2026-04-28 13:37 50.05257 19.22995 16626 ft 364 kts 163°
2026-04-28 13:37 50.02846 19.24315 17229 ft 369 kts 163°
2026-04-28 13:37 50.00426 19.25638 17813 ft 373 kts 163°
2026-04-28 13:37 49.97993 19.26967 18379 ft 377 kts 163°
2026-04-28 13:38 49.95504 19.28325 18939 ft 381 kts 163°
2026-04-28 13:38 49.92994 19.29693 19482 ft 385 kts 163°
2026-04-28 13:38 49.90465 19.31069 20014 ft 389 kts 164°
2026-04-28 13:38 49.87891 19.32467 20537 ft 393 kts 164°
2026-04-28 13:39 49.85322 19.33856 21040 ft 397 kts 164°
2026-04-28 13:39 49.82683 19.35282 21521 ft 402 kts 163°
2026-04-28 13:39 49.80062 19.36701 21985 ft 406 kts 163°
2026-04-28 13:39 49.77367 19.38159 22465 ft 410 kts 163°
2026-04-28 13:40 49.74695 19.39606 22925 ft 414 kts 163°
2026-04-28 13:40 49.71976 19.41077 23379 ft 418 kts 163°
2026-04-28 13:40 49.69198 19.42577 23821 ft 421 kts 163°
2026-04-28 13:40 49.66454 19.44054 24246 ft 425 kts 163°
2026-04-28 13:41 49.63652 19.45608 24665 ft 429 kts 161°
2026-04-28 13:41 49.60896 19.47433 25071 ft 434 kts 157°
2026-04-28 13:41 49.58214 19.49586 25463 ft 439 kts 152°
2026-04-28 13:41 49.55579 19.51990 25852 ft 443 kts 150°
2026-04-28 13:42 49.52966 19.54419 26228 ft 446 kts 150°
2026-04-28 13:42 49.50317 19.56882 26589 ft 449 kts 150°
2026-04-28 13:42 49.47607 19.59393 26945 ft 452 kts 150°
2026-04-28 13:42 49.44920 19.61874 27290 ft 455 kts 150°
2026-04-28 13:43 49.42224 19.64356 27621 ft 458 kts 150°
2026-04-28 13:43 49.39489 19.66874 27943 ft 461 kts 151°
2026-04-28 13:43 49.36723 19.69426 28268 ft 464 kts 151°
2026-04-28 13:43 49.33953 19.71976 28676 ft 464 kts 151°
2026-04-28 13:44 49.31229 19.74475 29102 ft 464 kts 151°
2026-04-28 13:44 49.28468 19.77002 29499 ft 464 kts 151°
2026-04-28 13:44 49.25692 19.79535 29899 ft 464 kts 151°
2026-04-28 13:44 49.22935 19.82046 30290 ft 464 kts 150°
2026-04-28 13:45 49.20144 19.84585 30684 ft 464 kts 150°
2026-04-28 13:45 49.17400 19.87077 31056 ft 464 kts 150°
2026-04-28 13:45 49.14655 19.89566 31431 ft 463 kts 150°
2026-04-28 13:45 49.12045 19.91929 31779 ft 463 kts 150°
2026-04-28 13:46 49.09312 19.94400 32125 ft 463 kts 150°
2026-04-28 13:46 49.06539 19.96901 32436 ft 464 kts 150°
2026-04-28 13:46 49.03748 19.99420 32724 ft 465 kts 150°
2026-04-28 13:46 49.01867 20.01115 32918 ft 466 kts 149°
2026-04-28 13:47 48.99741 20.03028 33135 ft 467 kts 149°
2026-04-28 13:47 48.97656 20.04904 33342 ft 467 kts 149°
2026-04-28 13:47 48.94857 20.07419 33612 ft 468 kts 149°
2026-04-28 13:47 48.92046 20.09945 33883 ft 469 kts 149°
2026-04-28 13:48 48.89243 20.12459 34157 ft 469 kts 149°
2026-04-28 13:48 48.86447 20.14950 34434 ft 469 kts 149°
2026-04-28 13:48 48.83734 20.17362 34704 ft 468 kts 149°
2026-04-28 13:48 48.80936 20.19849 34970 ft 468 kts 149°
2026-04-28 13:49 48.78164 20.22317 35230 ft 467 kts 149°
2026-04-28 13:49 48.75384 20.24789 35478 ft 467 kts 149°
2026-04-28 13:49 48.72579 20.27285 35679 ft 467 kts 149°
2026-04-28 13:49 48.69797 20.29753 35869 ft 468 kts 149°
2026-04-28 13:50 48.67427 20.31857 36017 ft 469 kts 149°
2026-04-28 13:50 48.64594 20.34367 36189 ft 470 kts 149°
2026-04-28 13:50 48.61786 20.36850 36350 ft 471 kts 149°
2026-04-28 13:50 48.58980 20.39333 36511 ft 471 kts 149°
2026-04-28 13:51 48.56810 20.41249 36629 ft 472 kts 149°
2026-04-28 13:51 48.53963 20.43758 36775 ft 473 kts 149°
2026-04-28 13:51 48.51136 20.46246 36913 ft 474 kts 149°
2026-04-28 13:51 48.48308 20.48668 37053 ft 474 kts 152°
2026-04-28 13:52 48.45340 20.50927 37161 ft 476 kts 154°
2026-04-28 13:52 48.42396 20.53084 37167 ft 476 kts 154°
2026-04-28 13:52 48.36856 20.57118 37175 ft 477 kts 154°
2026-04-28 13:53 48.32652 20.60180 37181 ft 476 kts 154°
2026-04-28 13:53 48.26704 20.64513 37188 ft 476 kts 154°
2026-04-28 13:54 48.20767 20.68848 37191 ft 477 kts 154°
2026-04-28 13:54 48.17060 20.71553 37191 ft 476 kts 154°
2026-04-28 13:55 48.11110 20.75871 37192 ft 476 kts 154°
2026-04-28 13:55 48.05160 20.80171 37191 ft 476 kts 154°
2026-04-28 13:56 48.01244 20.82992 37193 ft 477 kts 155°
2026-04-28 13:56 47.97187 20.85909 37193 ft 476 kts 155°
2026-04-28 13:57 47.93812 20.88331 37192 ft 476 kts 154°
2026-04-28 13:57 47.87901 20.92564 37185 ft 475 kts 155°
2026-04-28 13:58 47.83973 20.95359 37185 ft 474 kts 155°
2026-04-28 13:58 47.79984 20.98194 37182 ft 472 kts 154°
2026-04-28 13:59 47.75843 21.01140 37181 ft 470 kts 154°
2026-04-28 13:59 47.71181 21.04451 37177 ft 468 kts 154°
2026-04-28 14:00 47.65324 21.08608 37173 ft 466 kts 154°
2026-04-28 14:00 47.59528 21.12712 37171 ft 464 kts 154°
2026-04-28 14:01 47.55566 21.15509 37169 ft 464 kts 154°
2026-04-28 14:01 47.50753 21.18902 37169 ft 464 kts 154°
2026-04-28 14:02 47.45963 21.22274 37168 ft 463 kts 154°
2026-04-28 14:02 47.40154 21.26353 37168 ft 463 kts 154°
2026-04-28 14:03 47.34342 21.30421 37169 ft 463 kts 154°
2026-04-28 14:03 47.30568 21.33060 37170 ft 463 kts 154°
2026-04-28 14:04 47.24955 21.36976 37167 ft 464 kts 154°
2026-04-28 14:04 47.21228 21.39571 37168 ft 463 kts 154°
2026-04-28 14:05 47.15415 21.43611 37155 ft 463 kts 154°
2026-04-28 14:05 47.09648 21.47608 37131 ft 463 kts 154°
2026-04-28 14:06 47.03822 21.51636 37102 ft 464 kts 154°
2026-04-28 14:06 46.98013 21.55646 37080 ft 463 kts 155°
2026-04-28 14:07 46.92204 21.59648 37069 ft 462 kts 155°
2026-04-28 14:07 46.86438 21.63594 37061 ft 460 kts 155°
2026-04-28 14:08 46.80640 21.67561 37060 ft 459 kts 156°
2026-04-28 14:08 46.74844 21.71412 37059 ft 459 kts 157°
2026-04-28 14:09 46.69061 21.75201 37059 ft 459 kts 157°
2026-04-28 14:09 46.64078 21.78465 37060 ft 459 kts 157°
2026-04-28 14:10 46.58282 21.82255 37059 ft 459 kts 157°
2026-04-28 14:10 46.54157 21.84949 37059 ft 459 kts 157°
2026-04-28 14:11 46.48548 21.88603 37058 ft 459 kts 157°
2026-04-28 14:11 46.44679 21.91118 37058 ft 459 kts 157°
2026-04-28 14:12 46.40315 21.93950 37059 ft 459 kts 157°
2026-04-28 14:12 46.34486 21.97725 37060 ft 459 kts 157°
2026-04-28 14:13 46.28809 22.01776 37059 ft 459 kts 152°
2026-04-28 14:13 46.23211 22.06219 37059 ft 459 kts 152°
2026-04-28 14:14 46.17660 22.10618 37058 ft 459 kts 152°
2026-04-28 14:14 46.12057 22.15039 37060 ft 459 kts 152°
2026-04-28 14:15 46.06498 22.19411 37058 ft 459 kts 152°
2026-04-28 14:15 46.00914 22.23792 37057 ft 459 kts 152°
2026-04-28 14:16 45.95309 22.28180 37060 ft 459 kts 152°
2026-04-28 14:16 45.89726 22.32540 37059 ft 459 kts 152°
2026-04-28 14:17 45.84124 22.36881 37065 ft 459 kts 152°
2026-04-28 14:17 45.78495 22.41241 37091 ft 460 kts 152°
2026-04-28 14:18 45.72891 22.45582 37103 ft 459 kts 152°
2026-04-28 14:18 45.67310 22.49897 37108 ft 459 kts 152°
2026-04-28 14:19 45.61713 22.54216 37110 ft 459 kts 152°
2026-04-28 14:19 45.56136 22.58511 37113 ft 459 kts 152°
2026-04-28 14:20 45.50526 22.62822 37110 ft 459 kts 152°
2026-04-28 14:20 45.44931 22.67121 37111 ft 459 kts 152°
2026-04-28 14:21 45.39338 22.71428 37111 ft 459 kts 153°
2026-04-28 14:21 45.33739 22.75714 37113 ft 459 kts 153°
2026-04-28 14:22 45.28138 22.79982 37112 ft 459 kts 153°
2026-04-28 14:22 45.22507 22.84267 37111 ft 458 kts 153°
2026-04-28 14:23 45.16930 22.88502 37108 ft 456 kts 154°
2026-04-28 14:23 45.11373 22.92707 37101 ft 452 kts 155°
2026-04-28 14:24 45.05883 22.96847 37093 ft 446 kts 155°
2026-04-28 14:24 45.00479 23.00909 37090 ft 440 kts 155°
2026-04-28 14:25 44.95106 23.04938 37085 ft 435 kts 155°
2026-04-28 14:25 44.89787 23.08923 37087 ft 434 kts 155°
2026-04-28 14:26 44.84481 23.12877 37086 ft 434 kts 155°
2026-04-28 14:26 44.79151 23.16842 37085 ft 434 kts 155°
2026-04-28 14:27 44.73858 23.20781 37087 ft 433 kts 155°
2026-04-28 14:27 44.68563 23.24717 37087 ft 433 kts 155°
2026-04-28 14:28 44.63224 23.28676 37086 ft 433 kts 155°
2026-04-28 14:28 44.57918 23.32606 37085 ft 433 kts 155°
2026-04-28 14:29 44.52641 23.36503 37085 ft 433 kts 155°
2026-04-28 14:29 44.47303 23.40442 37086 ft 433 kts 155°
2026-04-28 14:30 44.42007 23.44337 37084 ft 434 kts 155°
2026-04-28 14:30 44.36651 23.48270 37085 ft 434 kts 155°
2026-04-28 14:31 44.31331 23.52168 37086 ft 433 kts 155°
2026-04-28 14:31 44.26024 23.56050 37086 ft 434 kts 155°
2026-04-28 14:32 44.20684 23.59946 37085 ft 433 kts 155°
2026-04-28 14:32 44.15379 23.63812 37088 ft 433 kts 155°
2026-04-28 14:33 44.10023 23.67597 37086 ft 433 kts 159°
2026-04-28 14:33 44.04449 23.70592 37084 ft 429 kts 166°
2026-04-28 14:34 43.95787 23.73230 37086 ft 426 kts 176°
2026-04-28 14:35 43.89905 23.74207 37088 ft 426 kts 176°
2026-04-28 14:35 43.84067 23.75178 37087 ft 425 kts 176°
2026-04-28 14:36 43.78226 23.76154 37084 ft 425 kts 176°
2026-04-28 14:36 43.72354 23.77129 37086 ft 425 kts 176°
2026-04-28 14:37 43.66529 23.78099 37086 ft 425 kts 176°
2026-04-28 14:37 43.60687 23.79072 37084 ft 425 kts 176°
2026-04-28 14:38 43.54827 23.80045 37084 ft 425 kts 176°
2026-04-28 14:38 43.48992 23.81015 37086 ft 425 kts 176°
2026-04-28 14:39 43.43136 23.81983 37082 ft 425 kts 176°
2026-04-28 14:39 43.37292 23.82946 37074 ft 425 kts 176°
2026-04-28 14:40 43.31413 23.83911 37065 ft 425 kts 176°
2026-04-28 14:40 43.25574 23.84871 37061 ft 426 kts 176°
2026-04-28 14:41 43.19708 23.85834 37059 ft 425 kts 176°
2026-04-28 14:41 43.13854 23.86794 37060 ft 425 kts 176°
2026-04-28 14:42 43.08016 23.87749 37060 ft 425 kts 176°
2026-04-28 14:42 43.02168 23.88705 37059 ft 425 kts 176°
2026-04-28 14:43 42.96327 23.89660 37059 ft 427 kts 176°
2026-04-28 14:43 42.90398 23.90625 37056 ft 431 kts 177°
2026-04-28 14:44 42.84443 23.91588 37057 ft 434 kts 177°
2026-04-28 14:44 42.78492 23.92547 37059 ft 434 kts 177°
2026-04-28 14:45 42.72518 23.93512 37057 ft 433 kts 177°
2026-04-28 14:45 42.66549 23.94474 37059 ft 433 kts 177°
2026-04-28 14:46 42.60603 23.95430 37059 ft 434 kts 177°
2026-04-28 14:46 42.54606 23.96393 37056 ft 434 kts 177°
2026-04-28 14:47 42.48620 23.97354 37058 ft 434 kts 177°
2026-04-28 14:47 42.42667 23.98305 37059 ft 434 kts 177°
2026-04-28 14:48 42.36664 23.99263 37059 ft 434 kts 177°
2026-04-28 14:48 42.30712 24.00212 37060 ft 434 kts 177°
2026-04-28 14:49 42.24733 24.01162 37060 ft 435 kts 177°
2026-04-28 14:49 42.18727 24.02118 37060 ft 434 kts 177°
2026-04-28 14:50 42.12774 24.03060 37058 ft 434 kts 177°
2026-04-28 14:50 42.06781 24.04011 37058 ft 434 kts 177°
2026-04-28 14:51 42.00820 24.04954 37061 ft 434 kts 177°
2026-04-28 14:51 41.94839 24.05896 37060 ft 434 kts 177°
2026-04-28 14:52 41.88836 24.06839 37059 ft 434 kts 177°
2026-04-28 14:52 41.82861 24.07774 37058 ft 434 kts 177°
2026-04-28 14:53 41.76895 24.08709 37059 ft 434 kts 177°
2026-04-28 14:53 41.70929 24.09643 37058 ft 434 kts 177°
2026-04-28 14:54 41.64937 24.10580 37060 ft 435 kts 177°
2026-04-28 14:54 41.58977 24.11902 37064 ft 438 kts 169°
2026-04-28 14:55 41.53209 24.14457 37069 ft 442 kts 160°
2026-04-28 14:55 41.47738 24.18295 37075 ft 447 kts 150°
2026-04-28 14:56 41.42596 24.22878 37077 ft 448 kts 149°
2026-04-28 14:56 41.37449 24.27504 37081 ft 448 kts 149°
2026-04-28 14:57 41.32295 24.32098 37084 ft 448 kts 149°
2026-04-28 14:57 41.27118 24.36695 37084 ft 448 kts 149°
2026-04-28 14:58 41.21945 24.41268 37083 ft 447 kts 150°
2026-04-28 14:58 41.16598 24.45315 37083 ft 444 kts 157°
2026-04-28 14:59 41.11043 24.48869 37084 ft 443 kts 158°
2026-04-28 14:59 41.05527 24.52388 37085 ft 441 kts 158°
2026-04-28 15:00 41.00043 24.55890 37085 ft 438 kts 158°
2026-04-28 15:00 40.94593 24.59363 37085 ft 434 kts 158°
2026-04-28 15:01 40.89166 24.62812 37085 ft 433 kts 158°
2026-04-28 15:01 40.83776 24.66227 37083 ft 433 kts 159°
2026-04-28 15:02 40.78386 24.69666 37084 ft 433 kts 159°
2026-04-28 15:02 40.72954 24.73119 37084 ft 433 kts 159°
2026-04-28 15:03 40.67577 24.76533 37084 ft 433 kts 159°
2026-04-28 15:03 40.62146 24.79961 37084 ft 433 kts 159°
2026-04-28 15:04 40.56767 24.83351 37084 ft 432 kts 159°
2026-04-28 15:04 40.51331 24.86773 37084 ft 432 kts 159°
2026-04-28 15:05 40.45931 24.90166 37084 ft 433 kts 159°
2026-04-28 15:05 40.40511 24.93564 37084 ft 433 kts 159°
2026-04-28 15:06 40.35109 24.96944 37084 ft 432 kts 159°
2026-04-28 15:06 40.29670 25.00339 37083 ft 434 kts 159°
2026-04-28 15:07 40.24236 25.03726 37083 ft 436 kts 159°
2026-04-28 15:07 40.18772 25.07126 37083 ft 438 kts 158°
2026-04-28 15:08 40.13264 25.10548 37084 ft 440 kts 158°
2026-04-28 15:08 40.07770 25.13954 37084 ft 441 kts 158°
2026-04-28 15:09 40.02251 25.17370 37084 ft 442 kts 158°
2026-04-28 15:09 39.96718 25.20839 37084 ft 444 kts 155°
2026-04-28 15:10 39.91400 25.24956 37084 ft 447 kts 148°
2026-04-28 15:10 39.86464 25.29903 37085 ft 450 kts 142°
2026-04-28 15:11 39.81760 25.35246 37084 ft 450 kts 141°
2026-04-28 15:11 39.77076 25.40571 37084 ft 451 kts 141°
2026-04-28 15:12 39.72346 25.45930 37084 ft 451 kts 141°
2026-04-28 15:12 39.67640 25.51249 37084 ft 450 kts 141°
2026-04-28 15:13 39.62918 25.56576 37084 ft 450 kts 141°
2026-04-28 15:13 39.58206 25.61881 37084 ft 450 kts 141°
2026-04-28 15:14 39.53502 25.67173 37084 ft 450 kts 142°
2026-04-28 15:14 39.48803 25.72473 37084 ft 450 kts 142°
2026-04-28 15:15 39.44090 25.77758 37084 ft 450 kts 142°
2026-04-28 15:15 39.39342 25.83064 37081 ft 450 kts 142°
2026-04-28 15:16 39.34621 25.88327 37075 ft 450 kts 142°
2026-04-28 15:16 39.29887 25.93594 37068 ft 450 kts 142°
2026-04-28 15:17 39.25126 25.98780 37063 ft 450 kts 143°
2026-04-28 15:17 39.20318 26.03929 37060 ft 450 kts 143°
2026-04-28 15:18 39.15537 26.09049 37060 ft 450 kts 143°
2026-04-28 15:18 39.10735 26.14187 37060 ft 450 kts 143°
2026-04-28 15:19 39.05950 26.19299 37060 ft 450 kts 143°
2026-04-28 15:19 39.01153 26.24416 37060 ft 450 kts 143°
2026-04-28 15:20 38.96334 26.29546 37060 ft 449 kts 143°
2026-04-28 15:20 38.91541 26.34639 37060 ft 448 kts 143°
2026-04-28 15:21 38.86766 26.39688 37060 ft 447 kts 143°
2026-04-28 15:21 38.82006 26.44742 37060 ft 448 kts 142°
2026-04-28 15:22 38.77310 26.50003 37060 ft 448 kts 141°
2026-04-28 15:22 38.72665 26.55232 37059 ft 448 kts 141°
2026-04-28 15:23 38.67972 26.60490 37059 ft 448 kts 141°
2026-04-28 15:23 38.63294 26.65714 37057 ft 448 kts 142°
2026-04-28 15:24 38.58638 26.70930 37055 ft 448 kts 142°
2026-04-28 15:24 38.53965 26.76141 37044 ft 447 kts 142°
2026-04-28 15:25 38.49287 26.81336 37028 ft 447 kts 142°
2026-04-28 15:25 38.44590 26.86538 37009 ft 447 kts 142°
2026-04-28 15:26 38.39903 26.91721 36993 ft 447 kts 142°
2026-04-28 15:26 38.35168 26.96790 36983 ft 445 kts 146°
2026-04-28 15:27 38.30069 27.01180 36979 ft 442 kts 153°
2026-04-28 15:27 38.24636 27.04713 36977 ft 438 kts 160°
2026-04-28 15:28 38.19105 27.07766 36977 ft 437 kts 160°
2026-04-28 15:28 38.13529 27.10842 36977 ft 436 kts 160°
2026-04-28 15:29 38.07993 27.13901 36977 ft 436 kts 160°
2026-04-28 15:29 38.02452 27.16960 36977 ft 436 kts 160°
2026-04-28 15:30 37.96939 27.19999 36977 ft 436 kts 160°
2026-04-28 15:30 37.91380 27.23059 36977 ft 436 kts 160°
2026-04-28 15:31 37.85833 27.26100 36977 ft 436 kts 160°
2026-04-28 15:31 37.80284 27.29135 36976 ft 436 kts 160°
2026-04-28 15:32 37.74748 27.32166 36977 ft 436 kts 160°
2026-04-28 15:32 37.69208 27.35198 36977 ft 436 kts 160°
2026-04-28 15:33 37.63656 27.38231 36976 ft 436 kts 160°
2026-04-28 15:33 37.58138 27.41352 36975 ft 437 kts 159°
2026-04-28 15:34 37.52614 27.44546 36970 ft 437 kts 159°
2026-04-28 15:34 37.47113 27.47620 36963 ft 435 kts 161°
2026-04-28 15:35 37.41537 27.50518 36957 ft 435 kts 161°
2026-04-28 15:35 37.33156 27.54893 36951 ft 436 kts 161°
2026-04-28 15:36 37.27604 27.57803 36950 ft 436 kts 160°
2026-04-28 15:36 37.22034 27.60816 36950 ft 436 kts 160°
2026-04-28 15:37 37.16498 27.63825 36950 ft 436 kts 160°
2026-04-28 15:37 37.11876 27.66337 36950 ft 436 kts 160°
2026-04-28 15:38 37.05402 27.69863 36950 ft 437 kts 160°
2026-04-28 15:38 36.99861 27.72858 36950 ft 438 kts 160°
2026-04-28 15:39 36.94286 27.75861 36950 ft 439 kts 160°
2026-04-28 15:39 36.88671 27.78880 36948 ft 439 kts 160°
2026-04-28 15:40 36.83101 27.81858 36942 ft 439 kts 160°
2026-04-28 15:40 36.77494 27.84856 36934 ft 439 kts 160°
2026-04-28 15:41 36.71934 27.87830 36927 ft 439 kts 160°
2026-04-28 15:41 36.66307 27.90792 36924 ft 438 kts 160°
2026-04-28 15:42 36.60700 27.93705 36922 ft 438 kts 160°
2026-04-28 15:42 36.55099 27.96616 36922 ft 438 kts 160°
2026-04-28 15:43 36.49508 27.99520 36922 ft 439 kts 160°
2026-04-28 15:43 36.43941 28.02607 36922 ft 439 kts 158°
2026-04-28 15:44 36.38462 28.05968 36921 ft 441 kts 153°
2026-04-28 15:44 36.33362 28.10154 36922 ft 444 kts 145°
2026-04-28 15:45 36.28722 28.15231 36922 ft 447 kts 136°
2026-04-28 15:45 36.24507 28.20851 36922 ft 447 kts 135°
2026-04-28 15:46 36.20303 28.26514 36922 ft 447 kts 135°
2026-04-28 15:46 36.16120 28.32115 36922 ft 447 kts 135°
2026-04-28 15:47 36.11879 28.37771 36922 ft 447 kts 135°
2026-04-28 15:47 36.07655 28.43393 36922 ft 447 kts 135°
2026-04-28 15:48 36.03436 28.48990 36922 ft 447 kts 135°
2026-04-28 15:48 35.99210 28.54583 36923 ft 447 kts 135°
2026-04-28 15:49 35.94987 28.60162 36922 ft 447 kts 135°
2026-04-28 15:49 35.90739 28.65765 36925 ft 447 kts 135°
2026-04-28 15:50 35.86402 28.71216 36930 ft 446 kts 139°
2026-04-28 15:50 35.81943 28.76473 36935 ft 446 kts 139°
2026-04-28 15:51 35.77480 28.81728 36939 ft 446 kts 139°
2026-04-28 15:51 35.73019 28.86983 36940 ft 444 kts 139°
2026-04-28 15:52 35.68586 28.92197 36938 ft 441 kts 139°
2026-04-28 15:52 35.64174 28.97375 36938 ft 438 kts 139°
2026-04-28 15:53 35.59804 29.02496 36941 ft 434 kts 140°
2026-04-28 15:53 35.55441 29.07600 36944 ft 432 kts 140°
2026-04-28 15:54 35.51115 29.12651 36947 ft 432 kts 140°
2026-04-28 15:54 35.46791 29.17695 36948 ft 431 kts 140°
2026-04-28 15:55 35.42451 29.22749 36948 ft 432 kts 140°
2026-04-28 15:55 35.38107 29.27801 36948 ft 432 kts 140°
2026-04-28 15:56 35.33779 29.32826 36948 ft 432 kts 140°
2026-04-28 15:56 35.29411 29.37891 36949 ft 432 kts 140°
2026-04-28 15:57 35.25075 29.42909 36948 ft 431 kts 140°
2026-04-28 15:57 35.20732 29.47929 36949 ft 432 kts 140°
2026-04-28 15:58 35.16384 29.52946 36949 ft 431 kts 140°
2026-04-28 15:58 35.12035 29.57958 36949 ft 431 kts 140°
2026-04-28 15:59 35.08396 29.62145 36949 ft 431 kts 140°
2026-04-28 15:59 35.03311 29.68000 36948 ft 431 kts 140°
2026-04-28 16:00 34.98967 29.73013 36946 ft 434 kts 142°
2026-04-28 16:00 34.94570 29.78115 36945 ft 440 kts 142°
2026-04-28 16:01 34.90143 29.83298 36942 ft 448 kts 143°
2026-04-28 16:01 34.85599 29.88566 36947 ft 457 kts 144°
2026-04-28 16:02 34.81003 29.93884 36947 ft 458 kts 145°
2026-04-28 16:02 34.76102 29.98782 36948 ft 451 kts 152°
2026-04-28 16:03 34.70882 30.02796 36948 ft 443 kts 159°
2026-04-28 16:03 34.65400 30.06091 36948 ft 440 kts 162°
2026-04-28 16:04 34.59897 30.09281 36948 ft 440 kts 162°
2026-04-28 16:04 34.54402 30.12473 36948 ft 440 kts 162°
2026-04-28 16:05 34.48910 30.15666 36947 ft 439 kts 162°
2026-04-28 16:05 34.43411 30.18859 36948 ft 440 kts 162°
2026-04-28 16:06 34.37900 30.22056 36948 ft 440 kts 162°
2026-04-28 16:06 34.32426 30.25228 36949 ft 440 kts 162°
2026-04-28 16:07 34.26919 30.28414 36949 ft 440 kts 162°
2026-04-28 16:08 34.18663 30.33182 36948 ft 439 kts 162°
2026-04-28 16:08 34.13188 30.36337 36948 ft 440 kts 162°
2026-04-28 16:09 34.04927 30.41090 36948 ft 439 kts 162°
2026-04-28 16:10 33.96650 30.45842 36947 ft 439 kts 162°
2026-04-28 16:10 33.88388 30.50574 36949 ft 440 kts 162°
2026-04-28 16:11 33.77355 30.56861 36949 ft 440 kts 162°
2026-04-28 16:12 33.69065 30.61584 36949 ft 440 kts 162°
2026-04-28 16:13 33.60799 30.66293 36946 ft 440 kts 163°
2026-04-28 16:14 33.49804 30.72574 36948 ft 439 kts 163°
2026-04-28 16:15 33.38794 30.78805 36948 ft 439 kts 163°
2026-04-28 16:15 33.33286 30.81915 36947 ft 439 kts 163°
2026-04-28 16:16 33.25011 30.86576 36948 ft 439 kts 163°
2026-04-28 16:17 33.16739 30.91197 36948 ft 437 kts 165°
2026-04-28 16:17 33.11105 30.93690 36948 ft 430 kts 172°
2026-04-28 16:18 33.05333 30.95364 36947 ft 421 kts 180°
2026-04-28 16:18 32.99602 30.96229 36957 ft 413 kts 187°
2026-04-28 16:19 32.93914 30.96853 36967 ft 411 kts 188°
2026-04-28 16:19 32.88249 30.97465 36972 ft 410 kts 188°
2026-04-28 16:20 32.82583 30.98090 36975 ft 411 kts 188°
2026-04-28 16:20 32.76871 30.98724 36975 ft 411 kts 188°
2026-04-28 16:21 32.71221 30.99352 36974 ft 411 kts 188°
2026-04-28 16:21 32.65518 30.99986 36974 ft 412 kts 188°
2026-04-28 16:22 32.59803 31.00620 36975 ft 412 kts 188°
2026-04-28 16:22 32.54122 31.01251 36975 ft 412 kts 188°
2026-04-28 16:23 32.48412 31.01883 36973 ft 412 kts 188°
2026-04-28 16:23 32.42736 31.02511 36974 ft 413 kts 188°
2026-04-28 16:24 32.37015 31.03143 36974 ft 413 kts 187°
2026-04-28 16:24 32.31289 31.03775 36974 ft 413 kts 187°
2026-04-28 16:25 32.25609 31.04401 36975 ft 414 kts 187°
2026-04-28 16:25 32.19904 31.05030 36973 ft 413 kts 187°
2026-04-28 16:26 32.14160 31.05662 36973 ft 414 kts 187°
2026-04-28 16:26 32.08474 31.06287 36973 ft 415 kts 187°
2026-04-28 16:27 32.02739 31.06914 36976 ft 416 kts 187°
2026-04-28 16:28 31.93927 31.07850 36977 ft 431 kts 187°
2026-04-28 16:28 31.87960 31.08490 36977 ft 438 kts 187°
2026-04-28 16:29 31.78826 31.09483 36974 ft 441 kts 187°
2026-04-28 16:30 31.69730 31.10463 36972 ft 441 kts 187°
2026-04-28 16:30 31.63617 31.11118 36973 ft 442 kts 187°
2026-04-28 16:31 31.57528 31.11768 36974 ft 443 kts 187°
2026-04-28 16:31 31.51405 31.12542 36975 ft 447 kts 183°
2026-04-28 16:32 31.45246 31.13691 36974 ft 450 kts 183°
2026-04-28 16:32 31.35986 31.15431 36976 ft 450 kts 182°
2026-04-28 16:33 31.30861 31.16392 36975 ft 450 kts 182°
2026-04-28 16:33 31.23642 31.17741 36980 ft 451 kts 182°
2026-04-28 16:34 31.17479 31.18887 36993 ft 451 kts 182°
2026-04-28 16:34 31.11299 31.20036 36996 ft 453 kts 182°
2026-04-28 16:35 31.05098 31.21188 36993 ft 452 kts 182°
2026-04-28 16:35 30.98882 31.22340 36986 ft 453 kts 182°
2026-04-28 16:36 30.92677 31.23484 36980 ft 455 kts 181°
2026-04-28 16:36 30.86457 31.24635 36978 ft 457 kts 181°
2026-04-28 16:37 30.80177 31.25803 36977 ft 457 kts 181°
2026-04-28 16:38 30.70753 31.27548 36977 ft 457 kts 181°
2026-04-28 16:38 30.64524 31.28697 36976 ft 457 kts 181°
2026-04-28 16:39 30.58240 31.29856 36976 ft 457 kts 181°
2026-04-28 16:39 30.51959 31.31012 36977 ft 457 kts 181°
2026-04-28 16:40 30.45678 31.32165 36976 ft 458 kts 181°
2026-04-28 16:40 30.39438 31.33310 36977 ft 458 kts 181°
2026-04-28 16:41 30.33135 31.34467 36976 ft 458 kts 181°
2026-04-28 16:41 30.26880 31.35615 36976 ft 457 kts 181°
2026-04-28 16:42 30.20642 31.36759 36977 ft 457 kts 181°
2026-04-28 16:42 30.14333 31.38244 36977 ft 467 kts 174°
2026-04-28 16:43 30.08181 31.40855 36977 ft 480 kts 164°
2026-04-28 16:43 30.02296 31.44697 36978 ft 493 kts 154°
2026-04-28 16:44 29.96757 31.49381 36978 ft 497 kts 152°
2026-04-28 16:44 29.91286 31.54106 36977 ft 497 kts 152°
2026-04-28 16:45 29.85719 31.58864 36977 ft 496 kts 152°
2026-04-28 16:45 29.80174 31.63569 36976 ft 496 kts 152°
2026-04-28 16:46 29.74642 31.68277 36973 ft 496 kts 152°
2026-04-28 16:46 29.69109 31.72997 36977 ft 496 kts 152°
2026-04-28 16:47 29.63579 31.77693 36976 ft 496 kts 152°
2026-04-28 16:47 29.58047 31.82374 36977 ft 496 kts 152°
2026-04-28 16:48 29.52501 31.87059 36976 ft 495 kts 153°
2026-04-28 16:48 29.46935 31.91750 36977 ft 496 kts 152°
2026-04-28 16:49 29.41391 31.96419 36976 ft 496 kts 152°
2026-04-28 16:49 29.35846 32.01082 36976 ft 496 kts 152°
2026-04-28 16:50 29.30306 32.05734 36977 ft 496 kts 153°
2026-04-28 16:50 29.24777 32.10371 36976 ft 496 kts 152°
2026-04-28 16:51 29.19239 32.15007 36977 ft 496 kts 152°
2026-04-28 16:51 29.13664 32.19670 36976 ft 496 kts 152°
2026-04-28 16:52 29.08125 32.24291 36977 ft 496 kts 152°
2026-04-28 16:52 29.02554 32.28929 36973 ft 495 kts 151°
2026-04-28 16:53 28.97018 32.33537 36961 ft 494 kts 150°
2026-04-28 16:53 28.91509 32.38125 36942 ft 493 kts 150°
2026-04-28 16:54 28.86039 32.42665 36921 ft 492 kts 150°
2026-04-28 16:54 28.80468 32.47271 36908 ft 493 kts 150°
2026-04-28 16:55 28.74930 32.51851 36901 ft 493 kts 150°
2026-04-28 16:55 28.69393 32.56431 36897 ft 493 kts 150°
2026-04-28 16:56 28.63856 32.61006 36896 ft 493 kts 150°
2026-04-28 16:56 28.58344 32.65555 36894 ft 493 kts 150°
2026-04-28 16:56 28.55570 32.67856 36727 ft 495 kts 150°
2026-04-28 16:57 28.52781 32.70170 36027 ft 496 kts 150°
2026-04-28 16:57 28.49997 32.72474 35311 ft 496 kts 150°
2026-04-28 16:57 28.47214 32.74772 34563 ft 496 kts 150°
2026-04-28 16:57 28.44455 32.77044 33797 ft 497 kts 150°
2026-04-28 16:58 28.41654 32.79345 33006 ft 497 kts 150°
2026-04-28 16:58 28.38854 32.81643 32217 ft 497 kts 150°
2026-04-28 16:58 28.36069 32.83926 31422 ft 497 kts 150°
2026-04-28 16:58 28.33299 32.86196 30620 ft 496 kts 149°
2026-04-28 16:59 28.30519 32.88475 30077 ft 490 kts 149°
2026-04-28 16:59 28.27768 32.90732 29592 ft 483 kts 149°
2026-04-28 16:59 28.25096 32.92923 29102 ft 477 kts 149°
2026-04-28 16:59 28.22413 32.95118 28605 ft 472 kts 149°
2026-04-28 17:00 28.19781 32.97269 28113 ft 468 kts 149°
2026-04-28 17:00 28.17141 32.99424 27623 ft 463 kts 149°
2026-04-28 17:00 28.14569 33.01524 27141 ft 459 kts 149°
2026-04-28 17:00 28.11996 33.03622 26663 ft 454 kts 149°
2026-04-28 17:01 28.09442 33.05703 26188 ft 450 kts 149°
2026-04-28 17:01 28.06906 33.07768 25716 ft 446 kts 149°
2026-04-28 17:01 28.04430 33.09784 25255 ft 442 kts 149°
2026-04-28 17:01 28.01966 33.11790 24797 ft 438 kts 149°
2026-04-28 17:02 27.99489 33.13806 24336 ft 435 kts 149°
2026-04-28 17:02 27.97877 33.15118 24036 ft 432 kts 149°
2026-04-28 17:02 27.94621 33.17765 23440 ft 427 kts 149°
2026-04-28 17:02 27.92228 33.19710 23000 ft 424 kts 149°
2026-04-28 17:03 27.87480 33.23555 22093 ft 417 kts 149°
2026-04-28 17:03 27.85156 33.25430 21641 ft 414 kts 149°
2026-04-28 17:03 27.82830 33.27307 21184 ft 410 kts 149°
2026-04-28 17:04 27.78227 33.31028 20265 ft 404 kts 148°
2026-04-28 17:04 27.75963 33.32859 19808 ft 400 kts 148°
2026-04-28 17:05 27.71488 33.36477 18897 ft 394 kts 148°
2026-04-28 17:05 27.69282 33.38260 18443 ft 391 kts 148°
2026-04-28 17:05 27.67075 33.40041 17985 ft 387 kts 148°
2026-04-28 17:06 27.62759 33.43525 17083 ft 381 kts 148°
2026-04-28 17:06 27.60610 33.45258 16628 ft 378 kts 148°
2026-04-28 17:06 27.56367 33.48677 15723 ft 373 kts 147°
2026-04-28 17:07 27.54263 33.50369 15273 ft 370 kts 148°
2026-04-28 17:07 27.52151 33.51923 14827 ft 365 kts 152°
2026-04-28 17:07 27.49926 33.53269 14377 ft 360 kts 157°
2026-04-28 17:07 27.47640 33.54422 13929 ft 357 kts 159°
2026-04-28 17:08 27.45395 33.55508 13491 ft 354 kts 159°
2026-04-28 17:08 27.43147 33.56590 13053 ft 351 kts 159°
2026-04-28 17:08 27.40902 33.57675 12613 ft 349 kts 159°
2026-04-28 17:08 27.38694 33.58746 12180 ft 346 kts 159°
2026-04-28 17:09 27.36502 33.59777 11749 ft 343 kts 161°
2026-04-28 17:09 27.34243 33.60654 11309 ft 340 kts 165°
2026-04-28 17:09 27.31980 33.61358 10878 ft 337 kts 167°
2026-04-28 17:09 27.29728 33.62027 10445 ft 335 kts 167°
2026-04-28 17:10 27.27511 33.62682 10228 ft 324 kts 167°
2026-04-28 17:10 27.25395 33.63311 10136 ft 310 kts 167°
2026-04-28 17:10 27.23361 33.63915 10051 ft 296 kts 167°
2026-04-28 17:10 27.21405 33.64496 9962 ft 284 kts 167°
2026-04-28 17:11 27.19526 33.65052 9618 ft 283 kts 168°
2026-04-28 17:11 27.17613 33.65626 9286 ft 281 kts 168°
2026-04-28 17:11 27.15734 33.66193 8967 ft 279 kts 168°
2026-04-28 17:11 27.13873 33.66753 8685 ft 275 kts 168°
2026-04-28 17:12 27.12063 33.67294 8451 ft 268 kts 168°
2026-04-28 17:12 27.10277 33.67826 8177 ft 264 kts 168°
2026-04-28 17:12 27.08509 33.68350 7849 ft 262 kts 168°
2026-04-28 17:12 27.06751 33.68870 7510 ft 261 kts 168°
2026-04-28 17:13 27.05015 33.69383 7192 ft 259 kts 168°
2026-04-28 17:13 27.03269 33.69899 6885 ft 259 kts 168°
2026-04-28 17:13 27.01523 33.70415 6586 ft 258 kts 168°
2026-04-28 17:13 26.99824 33.70917 6332 ft 255 kts 168°
2026-04-28 17:14 26.98124 33.71421 6167 ft 246 kts 168°
2026-04-28 17:14 26.96484 33.71907 6132 ft 245 kts 168°
2026-04-28 17:14 26.94826 33.72396 6087 ft 245 kts 168°
2026-04-28 17:14 26.93226 33.73056 6045 ft 249 kts 148°
2026-04-28 17:15 26.92133 33.74536 5739 ft 255 kts 110°
2026-04-28 17:15 26.92053 33.76492 5422 ft 253 kts 71°
2026-04-28 17:15 26.92897 33.78151 5158 ft 246 kts 50°
2026-04-28 17:15 26.93989 33.79612 4903 ft 242 kts 47°
2026-04-28 17:16 26.95047 33.81043 4655 ft 238 kts 50°
2026-04-28 17:16 26.96058 33.82515 4407 ft 234 kts 51°
2026-04-28 17:16 26.97028 33.83959 4157 ft 231 kts 45°
2026-04-28 17:16 26.98352 33.84876 3822 ft 223 kts
2026-04-28 17:17 26.99829 33.84736 3544 ft 215 kts 340°
2026-04-28 17:17 27.01236 33.84181 3254 ft 213 kts 337°
2026-04-28 17:17 27.02621 33.83648 3083 ft 212 kts 340°
2026-04-28 17:17 27.04014 33.83190 3068 ft 204 kts 342°
2026-04-28 17:18 27.05362 33.82792 2837 ft 197 kts 343°
2026-04-28 17:18 27.06701 33.82444 2431 ft 192 kts 344°
2026-04-28 17:18 27.07938 33.82093 2206 ft 178 kts 342°
2026-04-28 17:18 27.09101 33.81747 1830 ft 172 kts 341°
2026-04-28 17:19 27.10218 33.81373 1411 ft 166 kts 340°
2026-04-28 17:19 27.11313 33.81027 1040 ft 159 kts 342°
2026-04-28 17:19 27.12344 33.80750 765 ft 147 kts 343°
2026-04-28 17:19 27.13287 33.80481 554 ft 133 kts 340°
2026-04-28 17:20 27.14170 33.80211 415 ft 131 kts 341°
2026-04-28 17:20 27.14761 33.80030 326 ft 132 kts 341°
2026-04-28 17:20 27.15935 33.79677 112 ft 131 kts 341°
2026-04-28 17:20 27.16772 33.79423 58 ft 109 kts 346°
2026-04-28 17:21 27.17340 33.79254 58 ft 60 kts 343°
2026-04-28 17:21 27.17638 33.79168 58 ft 38 kts 346°
2026-04-28 17:21 27.17890 33.79168 58 ft 33 kts 15°
2026-04-28 17:22 27.17803 33.79319 58 ft 21 kts 167°
2026-04-28 17:22 27.17661 33.79355 58 ft 20 kts 163°
2026-04-28 17:22 27.17524 33.79399 58 ft 20 kts 165°
2026-04-28 17:23 27.17257 33.79492 58 ft 19 kts 129°
2026-04-28 17:23 27.17270 33.79630 58 ft 18 kts 70°
2026-04-28 17:23 27.17305 33.79773 58 ft 18 kts 75°
2026-04-28 17:23 27.17339 33.79912 58 ft 18 kts 76°
2026-04-28 17:24 27.17367 33.80055 58 ft 18 kts 77°
2026-04-28 17:24 27.17399 33.80195 58 ft 18 kts 75°
2026-04-28 17:24 27.17432 33.80333 58 ft 18 kts 74°
2026-04-28 17:24 27.17466 33.80472 58 ft 18 kts 76°
2026-04-28 17:25 27.17512 33.80603 58 ft 18 kts 51°
2026-04-28 17:25 27.17682 33.80544 58 ft 7 kts 267°
2026-04-28 17:25 27.17670 33.80487 58 ft 7 kts 253°
2026-04-28 17:26 27.17668 33.80478 58 ft 0 kts 254°